[[{"header":{"parameterUnit":"m.s-1","parameterCategory":1,"la1":30.2991,"la2":30.254,"lo1":-89.0895,"lo2":-89.0444,"dy":0.0017,"dx":0.0017,"nx":28,"ny":28,"refTime":"2025-05-27T09:00:00:Z","depth":0,"parameterNumber":2,"parameterNumberName":"U-component_of_WINDS"},"data":[0,0,0,0,0,0,0,0,0,0,0,0,0,0,0,0,0,0,0,0,0,0,0,0,0,0,0,0,0,0,0,0,0,0,0,0,0,0,0,0,0,0,0,0,0,0,0,0,0,0,0,0,0,0,0,0,0,0,2.866,2.866,0,2.8695,2.8696,2.8696,2.8641,2.8639,2.8637,2.8635,2.867,2.8673,2.8676,0,0,0,0,0,0,0,0,0,0,0,0,0,2.8542,2.8545,2.866,2.866,2.8661,2.8695,2.8696,2.8696,2.8641,2.8639,2.8637,2.8634,2.8669,2.8673,2.8676,0,0,0,0,0,0,0,0,0,0,0,0,0,2.8587,2.8546,2.866,2.8638,2.8636,2.8695,2.8696,2.8696,2.8642,2.8639,2.8636,2.8633,2.8668,2.8672,2.8676,2.8759,0,0,2.8689,2.8691,0,0,0,0,0,0,0,0,2.8585,2.8591,2.864,2.8639,2.8637,2.8661,2.8667,2.8717,2.8642,2.864,2.8635,2.8632,2.8669,2.8673,2.8686,2.876,2.8762,2.8689,2.8692,2.8693,2.8694,0,0,0,0,0,0,0,2.8582,2.859,2.8674,2.8641,2.8639,2.8625,2.8628,2.8676,2.867,2.864,2.8636,2.8641,2.8668,2.8682,2.8686,2.8762,2.8689,2.8693,2.8695,2.8697,2.8901,2.8904,0,0,0,0,0,0,2.8581,2.8587,2.8673,2.8675,2.8604,2.8629,2.8633,2.8656,2.8669,2.8669,2.8643,2.8638,2.8677,2.8682,2.8687,2.8781,2.8693,2.8697,2.8699,2.8898,2.8902,2.8905,0,0,0,0,0,0,2.8579,2.859,2.8671,2.863,2.8639,2.8634,2.8661,2.8658,2.8672,2.8672,2.867,2.8659,2.8675,2.8682,2.874,2.8781,2.8699,2.8703,2.8895,2.8899,2.8904,2.8971,0,0,0,0,0,0,2.8576,2.8589,2.8621,2.8631,2.8642,2.8725,2.8664,2.8661,2.868,2.8673,2.8686,2.8686,2.8673,2.8735,2.8744,2.8786,2.8706,2.8891,2.8897,2.8902,2.8965,2.8977,2.8988,0,0,0,0,0,2.8572,2.8639,2.8623,2.8634,2.8682,2.8727,2.8733,2.8717,2.8683,2.8714,2.8714,2.8685,2.8776,2.8741,2.8752,2.8795,2.8888,2.8895,2.8902,2.896,2.8975,2.8987,0,0,0,0,0,0,2.8634,2.864,2.8622,2.8695,2.8711,2.8718,2.8757,2.8734,2.876,2.8753,2.8732,2.8735,2.8797,2.8803,2.8763,2.8873,2.8826,2.8836,2.8867,2.8881,2.8892,2.8888,2.8709,0,0,0,0,0,2.8657,2.8694,2.8697,2.8761,2.877,2.8762,2.8781,2.8768,2.8783,2.8789,2.8793,2.8809,2.884,2.8862,2.8891,2.8967,2.8966,2.9001,2.9013,2.9022,2.9029,2.9065,2.9079,2.8927,2.8927,2.8927,0,0,2.8703,2.8711,2.8736,2.8773,2.8784,2.8821,2.8768,2.8811,2.8837,2.8796,2.885,2.8854,2.887,2.8936,2.8965,2.8942,2.9071,2.903,2.9038,2.904,2.9074,2.9088,2.9101,2.8932,2.8931,2.893,0,0,2.8805,2.8817,2.8869,2.888,2.8897,2.8891,2.8904,2.8914,2.8914,2.8969,2.8937,2.8969,2.9025,2.9036,2.9049,2.9154,2.9128,2.9165,2.9223,2.9258,2.927,2.9281,2.9314,2.9327,2.9173,2.9173,2.9173,0,2.886,2.8915,2.8899,2.8942,2.8958,2.8923,2.8974,2.8986,2.9012,2.9023,2.8997,2.9064,2.9073,2.9139,2.9165,2.9178,2.9189,2.9162,2.927,2.928,2.929,2.9321,2.9335,2.9177,2.9176,2.9176,2.9176,0,2.898,2.9019,2.9059,2.9083,2.9105,2.9152,2.9141,2.9165,2.9149,2.9146,2.92,2.9209,2.9238,2.9253,2.924,2.9317,2.9302,2.9274,2.9225,2.9309,2.9338,2.935,2.9183,2.9181,2.918,2.9179,0,0,2.9122,2.9135,2.9149,2.9158,2.9174,2.9202,2.9248,2.9276,2.9294,2.9314,2.9348,2.9396,2.9369,2.9384,2.9371,2.9403,2.948,2.937,2.937,2.9387,2.9562,2.958,2.9595,2.9464,2.9467,2.9469,2.9559,0,2.922,2.9297,2.9282,2.9357,2.9391,2.9357,2.9396,2.9408,2.9406,2.9434,2.9432,2.9464,2.9428,2.9436,2.9467,2.9465,2.9515,2.9458,2.9494,2.9496,2.9487,2.9611,2.9631,2.9716,2.9571,2.9573,2.9575,0,2.9345,2.9367,2.9444,2.9451,2.9465,2.95,2.9522,2.955,2.9563,2.9559,2.9575,2.9556,2.9598,2.9553,2.961,2.9572,2.9586,2.9587,2.959,2.9589,2.9538,2.961,2.9744,2.9755,2.9593,2.9592,2.9591,0,2.9434,2.9484,2.9536,2.9545,2.9556,2.958,2.9586,2.9596,2.9613,2.9633,2.9643,2.9669,2.9682,2.9702,2.9688,2.9657,2.9746,2.97,2.9742,2.9742,2.9759,2.9758,2.9893,2.9775,2.9775,2.9775,2.9775,0,2.9544,2.9591,2.9576,2.9607,2.9659,2.9642,2.9693,2.9695,2.9704,2.9734,2.9708,2.9736,2.9719,2.9746,2.9737,2.9783,2.9791,2.9787,2.9783,2.9787,2.9787,2.9793,2.9785,2.9778,2.9778,2.9777,2.9776,0,2.9651,2.9643,2.9697,2.9702,2.9704,2.9742,2.9745,2.9774,2.977,2.9808,2.9816,2.9809,2.9839,2.9829,2.9862,2.9855,2.9913,2.9904,2.9909,2.9905,2.9945,2.994,3.0086,3.0103,2.9978,2.9979,2.998,0,2.9719,2.9755,2.9763,2.9781,2.9788,2.9818,2.9835,2.9819,2.9837,2.9853,2.9879,2.9907,2.9928,2.9978,2.9975,2.9999,2.9988,3.0037,2.9991,2.9993,2.9983,2.998,2.9982,3.0045,3.0047,3.0048,3.0049,0,2.984,2.9833,2.9858,2.9881,2.9901,2.9919,2.9934,2.995,2.9935,2.9957,2.9986,3.0003,3.0035,3.0062,3.0083,3.0088,3.0065,3.0064,3.0074,3.0076,3.0076,3.0073,2.9929,3.006,3.0059,3.0058,3.0057,3.0057,2.9927,2.9955,2.9965,2.9992,3.0002,3.0016,3.0042,3.0041,3.0066,3.009,3.008,3.0114,3.0124,3.015,3.0157,3.0183,3.0163,3.0179,3.0182,3.0185,3.0189,3.0075,3.0187,3.0187,3.0187,3.0186,3.0186,0,3.0042,3.0046,3.0072,3.0093,3.0114,3.0092,3.0107,3.0125,3.0155,3.0167,3.0188,3.0221,3.0246,3.0246,3.0269,3.0289,3.0279,3.0295,3.0292,3.0292,3.0207,3.0194,3.0303,3.0303,3.0303,3.0303,3.0303,3.0303,3.0104,3.015,3.0144,3.0194,3.0198,3.023,3.024,3.0252,3.0261,3.0299,3.032,3.0319,3.0325,3.0348,3.037,3.0369,3.0377,3.0397,3.0391,3.0311,3.0299,3.0288,3.0275,3.04,3.04,3.0474,3.0475,3.0475]},{"header":{"parameterUnit":"m.s-1","parameterCategory":1,"la1":30.2991,"la2":30.254,"lo1":-89.0895,"lo2":-89.0444,"dy":0.0017,"dx":0.0017,"nx":28,"ny":28,"refTime":"2025-05-27T09:00:00:Z","depth":0,"parameterNumber":3,"parameterNumberName":"V-component_of_WINDS"},"data":[0,0,0,0,0,0,0,0,0,0,0,0,0,0,0,0,0,0,0,0,0,0,0,0,0,0,0,0,0,0,0,0,0,0,0,0,0,0,0,0,0,0,0,0,0,0,0,0,0,0,0,0,0,0,0,0,0,0,3.6934,3.6935,0,3.7046,3.7047,3.7048,3.704,3.7038,3.7037,3.7035,3.7143,3.7148,3.7152,0,0,0,0,0,0,0,0,0,0,0,0,0,3.6706,3.671,3.6934,3.6935,3.6936,3.7045,3.7047,3.7048,3.704,3.7038,3.7036,3.7034,3.7142,3.7147,3.7152,0,0,0,0,0,0,0,0,0,0,0,0,0,3.681,3.6711,3.6933,3.6946,3.6948,3.7045,3.7047,3.7049,3.7041,3.7038,3.7036,3.7033,3.714,3.7147,3.7153,3.7244,0,0,3.7173,3.7176,0,0,0,0,0,0,0,0,3.6804,3.6818,3.6942,3.6945,3.6948,3.7026,3.7006,3.7114,3.7041,3.7005,3.7035,3.7032,3.7106,3.7115,3.7142,3.7249,3.7253,3.7174,3.7178,3.7181,3.7183,0,0,0,0,0,0,0,3.6797,3.6813,3.6978,3.6944,3.6947,3.6943,3.6955,3.7027,3.7068,3.7008,3.7008,3.7021,3.7107,3.7135,3.7144,3.7255,3.7174,3.718,3.7184,3.7186,3.7439,3.7442,0,0,0,0,0,0,3.6788,3.6807,3.6974,3.6981,3.6868,3.6949,3.6963,3.7003,3.7067,3.7075,3.7023,3.7021,3.7125,3.7136,3.7148,3.7256,3.7181,3.7187,3.7191,3.7437,3.744,3.7443,0,0,0,0,0,0,3.6783,3.6803,3.697,3.6894,3.6915,3.6956,3.7002,3.7007,3.7035,3.7079,3.7085,3.7045,3.7124,3.7138,3.722,3.726,3.719,3.7196,3.7433,3.7438,3.7441,3.7475,0,0,0,0,0,0,3.6776,3.6801,3.6838,3.6895,3.6919,3.7042,3.7004,3.7011,3.7047,3.7045,3.7101,3.7108,3.7123,3.721,3.7226,3.7268,3.7201,3.743,3.7435,3.744,3.7471,3.748,3.7488,0,0,0,0,0,3.6768,3.6842,3.6839,3.686,3.6966,3.7044,3.7058,3.7075,3.7051,3.7087,3.7114,3.7106,3.7253,3.7218,3.7237,3.7281,3.7427,3.7434,3.744,3.7467,3.7478,3.7488,0,0,0,0,0,0,3.6786,3.685,3.6848,3.6943,3.6989,3.7043,3.7089,3.7087,3.7139,3.7134,3.7152,3.7164,3.7246,3.7272,3.7232,3.7371,3.7337,3.7347,3.7351,3.7362,3.7371,3.7362,3.7207,0,0,0,0,0,3.6802,3.6862,3.6913,3.6992,3.7015,3.7048,3.7083,3.7092,3.714,3.7158,3.7192,3.7236,3.7292,3.7329,3.7383,3.7474,3.7485,3.7514,3.7522,3.7529,3.7537,3.7586,3.7598,3.7463,3.7463,3.7463,0,0,3.6833,3.6875,3.6912,3.6997,3.7033,3.7093,3.7064,3.7129,3.7173,3.7167,3.7247,3.7273,3.7323,3.7409,3.7449,3.7433,3.7577,3.7537,3.7542,3.7547,3.7593,3.7606,3.7617,3.7467,3.7466,3.7466,0,0,3.6922,3.6961,3.703,3.7067,3.7123,3.7144,3.7161,3.7216,3.7233,3.7313,3.731,3.7361,3.7457,3.7493,3.7524,3.7624,3.7617,3.764,3.7685,3.7732,3.7743,3.7752,3.7786,3.7798,3.7649,3.7649,3.7649,0,3.6953,3.7046,3.7065,3.713,3.7166,3.7166,3.7234,3.7269,3.7339,3.7362,3.7344,3.7465,3.7498,3.7592,3.7616,3.7642,3.7659,3.7634,3.774,3.775,3.7759,3.7791,3.7804,3.7651,3.7651,3.7651,3.765,0,3.7081,3.7145,3.7193,3.7263,3.7304,3.7371,3.7398,3.7437,3.7442,3.7464,3.7544,3.7585,3.7646,3.7669,3.7675,3.7763,3.7752,3.7737,3.7703,3.7774,3.7805,3.7817,3.7655,3.7654,3.7653,3.7652,0,0,3.7184,3.7263,3.728,3.7311,3.7372,3.7421,3.7486,3.7548,3.758,3.7628,3.7682,3.7763,3.7749,3.7784,3.7793,3.7834,3.7908,3.7814,3.7815,3.7829,3.8006,3.8016,3.8031,3.7905,3.7907,3.7909,3.8001,0,3.7278,3.7396,3.7414,3.7517,3.7575,3.7574,3.763,3.7673,3.7695,3.7745,3.7768,3.7825,3.7804,3.7824,3.7865,3.7891,3.7944,3.7884,3.7952,3.7955,3.7939,3.8047,3.8059,3.8144,3.8014,3.8016,3.8017,0,3.7403,3.7456,3.7565,3.7617,3.7642,3.7693,3.7749,3.7798,3.7845,3.7858,3.7896,3.79,3.7965,3.7929,3.8017,3.7976,3.8004,3.8021,3.8025,3.8031,3.799,3.8055,3.8172,3.8184,3.8037,3.8035,3.8034,0,3.7465,3.7563,3.7641,3.7667,3.7731,3.7766,3.7793,3.7838,3.7873,3.7922,3.7945,3.8,3.803,3.8072,3.8089,3.8061,3.8175,3.8141,3.8186,3.8185,3.821,3.8208,3.8331,3.823,3.8229,3.8229,3.8229,0,3.7567,3.7634,3.767,3.7718,3.7791,3.781,3.7881,3.7907,3.7947,3.7997,3.7999,3.8046,3.8067,3.8116,3.813,3.82,3.8213,3.8224,3.8227,3.8224,3.8222,3.8242,3.8236,3.8233,3.8232,3.8231,3.8231,0,3.765,3.7677,3.7761,3.7814,3.7829,3.788,3.7924,3.7969,3.799,3.8054,3.807,3.8103,3.8161,3.8183,3.8253,3.8262,3.8343,3.8341,3.8328,3.8328,3.8371,3.8366,3.8511,3.8531,3.8417,3.8418,3.8419,0,3.7712,3.7764,3.7822,3.7857,3.7886,3.7943,3.7979,3.7999,3.8036,3.8092,3.813,3.8188,3.8236,3.8328,3.8357,3.841,3.8409,3.8456,3.8417,3.8411,3.8408,3.8404,3.8409,3.8463,3.8464,3.8465,3.8466,0,3.782,3.7831,3.7885,3.7943,3.7987,3.8033,3.8077,3.8105,3.8131,3.8172,3.8233,3.827,3.8342,3.8399,3.8454,3.8479,3.8476,3.8478,3.8491,3.8488,3.8477,3.8482,3.8346,3.8474,3.8474,3.8473,3.8472,3.8472,3.7894,3.7939,3.7987,3.8046,3.8082,3.8123,3.8168,3.8195,3.8246,3.8308,3.8316,3.838,3.8423,3.8497,3.8524,3.8573,3.856,3.8579,3.8584,3.8588,3.8591,3.8471,3.8583,3.8583,3.8583,3.8582,3.8582,0,3.8001,3.8032,3.8086,3.8149,3.8195,3.819,3.8239,3.8276,3.8334,3.8375,3.8422,3.8491,3.8546,3.8579,3.8633,3.8666,3.8665,3.8679,3.8676,3.8682,3.86,3.8583,3.8678,3.8678,3.8678,3.8678,3.8678,3.8678,3.8062,3.8137,3.8153,3.8245,3.8275,3.834,3.8368,3.8405,3.8438,3.8515,3.8561,3.8583,3.862,3.8678,3.8727,3.8735,3.8754,3.8769,3.8775,3.8698,3.8688,3.8678,3.8662,3.8773,3.8773,3.8854,3.8854,3.8855]}]]